THORAD AGENA D DEB *, 5967

Orbit data source: Space-Track

THORAD AGENA D DEB *, 5967 is space debris in SSO originally from a launch on Wed, 08 Apr 1970 UTC launched from the Air Force Western Test Range (AFWTR). Debris objects in space refer to the collection of defunct objects orbiting the Earth. Examples of debris include non-operational satellites, rocket bodies, and fragments generated from explosions, collisions, or faulty payload assembly.

Loading next visibility...
Identifier
5967, 1970-025MQ
Orbit
SSO
Country
Flag of USUS
Related business
Manufacturer
Unknown
Mission
Spacecraft
Bus & Motor
Unknown
Mass
Unknown
Launch date (UTC)
1970-04-08 (56 years ago)
Launch vehicle
Unknown
Launch site
Air Force Western Test Range (AFWTR)
Object type
Payload
Rocket body
Debris
Shape & HBR
Unknown shape, 0.1 m
Radar Cross Section
Small (<0.1 m²)

Expand to show TLE details & history
Last TLE update: 15 hours ago

TLE from 15 hours ago
0 THORAD AGENA D DEB *
1 05967U 70025MQ  26035.17740171  .00000150  00000-0  70467-3 0  9998
2 05967 101.6499 281.2829 0121276 175.6129 351.8224 12.93211163621251
Epoch: 2026-02-04T04:15Z
TLE epoch observation values (Epoch: 2026-02-04T04:15:27.507Z)
Latitude
12.46275°
Longitude
-94.33095°
Altitude
1,198.665 km
Speed
7.299 km/s
True Right ascension
06h 55m 31s
True Declination
12° 23' 41"
Sunlit
Object was in full shadow at epoch
Visualization orbit readout
Latitude
Unknown
Longitude
Unknown
Altitude
Unknown
Speed
Unknown
Apparent Right ascension
Unknown
Apparent Declination
Unknown
Sunlit
N/A
Visualization observer readout
Local Sidereal Time
21:24:43
Azimuth
Unknown
Elevation
Unknown
Doppler factor
Unknown
Orbital elements
Apogee altitude
1,379.241 km
Perigee altitude
1,193.338 km
Semi-major axis
7,664.427 km
Eccentricity
0.01213
Inclination
101.6499°
RAAN
281.2829°
Arg. of periapsis
175.6129°
True anomaly
351.62171°
Mean anomaly
351.8224°
Eccentric anomaly
351.72236°
Mean motion
3.23462 °/min
Orbital period
111.3 mins
BSTAR
0.00070467
Loading maneuver chart data...
Computing Atmospheric mass density...

Documentation

Showing up to 5 results
|